This demonstration page uses our WeatherBlox Daily Observations layout. Learn more.

Left ArrowRight Arrow

Hourly Observations for August 1, 2020

Temp ( °F °C ) Dew Point ( °F °C ) Humidity (%) Winds ( mph kmh ) Pressure ( in mb ) Visibility ( mi km ) Precip ( " mm )
12:53 am 00:53 Clear 64 17.8 60 15.6 87 87 Calm 30.06 1018 10 16 0.00 0.00
1:53 am 01:53 Clear 62 16.7 58 14.4 86 86 WNW 5 7 30.06 1018 9 14 0.00 0.00
2:53 am 02:53 Clear 62 16.7 59 15 90 90 WNW 5 7 30.04 1017 10 16 0.00 0.00
3:53 am 03:53 Clear 62 16.7 59 15 90 90 WSW 3 6 30.03 1017 10 16 0.00 0.00
4:53 am 04:53 Clear 62 16.7 59 15 90 90 W 6 9 30.02 1017 10 16 0.00 0.00
5:53 am 05:53 Clear 63 17.2 59 15 87 87 W 5 7 30.02 1017 10 16 0.00 0.00
6:53 am 06:53 Sunny 63 17.2 59 15 87 87 WSW 5 7 30.04 1017 10 16 0.00 0.00
7:53 am 07:53 Mostly Sunny 66 18.9 61 16.1 84 84 W 7 11 30.04 1017 10 16 0.00 0.00
8:53 am 08:53 Partly Cloudy 68 20 62 16.7 81 81 NW 8 13 30.04 1017 10 16 0.00 0.00
9:53 am 09:53 Sunny 74 23.3 64 17.8 71 71 NNW 9 15 30.03 1017 10 16 0.00 0.00
10:53 am 10:53 Sunny 75 23.9 63 17.2 66 66 N 7 11 30.03 1017 10 16 0.00 0.00
11:53 am 11:53 Sunny 79 26.1 62 16.7 56 56 NNW 9 15 30.03 1017 10 16 0.00 0.00
12:53 pm 12:53 Sunny 80 26.7 62 16.7 54 54 NNW 12 19 30.03 1017 10 16 0.00 0.00
1:53 pm 13:53 Sunny 80 26.7 65 18.3 60 60 NNW 10 17 30.02 1017 10 16 0.00 0.00
2:53 pm 14:53 Sunny 82 27.8 66 18.9 58 58 NNW 13 20 30.01 1016 10 16 0.00 0.00
3:53 pm 15:53 Mostly Sunny 84 28.9 64 17.8 51 51 N 17 28 29.99 1016 10 16 0.00 0.00
4:53 pm 16:53 Mostly Sunny 82 27.8 63 17.2 53 53 N 16 26 29.99 1016 10 16 0.00 0.00
5:53 pm 17:53 Sunny 82 27.8 61 16.1 49 49 N 17 28 29.98 1015 10 16 0.00 0.00
6:53 pm 18:53 Sunny 81 27.2 61 16.1 51 51 N 12 19 29.98 1015 10 16 0.00 0.00
7:53 pm 19:53 Mostly Cloudy 76 24.4 64 17.8 67 67 NE 9 15 30.00 1016 10 16 0.00 0.00
8:53 pm 20:53 Clear 72 22.2 63 17.2 73 73 NNE 6 9 30.02 1017 10 16 0.00 0.00
9:53 pm 21:53 Clear 67 19.4 64 17.8 91 91 N 6 9 30.04 1017 10 16 0.00 0.00
10:53 pm 22:53 Mostly Cloudy 69 20.6 63 17.2 81 81 N 6 9 30.05 1018 10 16 0.00 0.00
11:53 pm 23:53 Partly Cloudy 68 20 63 17.2 84 84 NNW 7 11 30.06 1018 10 16 0.00 0.00

Powered by AerisWeather